Waarnemingen

Advertentie
Mijn weer
Schaffen, België (6465): temperatuur & dauwpunt: 25.09.2020 02:00:00 - 01.10.2020 02:00:00 (CEST)Schaffen, België (6465): windsnelheid & windstoten: 25.09.2020 02:00:00 - 01.10.2020 02:00:00 (CEST)Schaffen, België (6465): windrichting: 25.09.2020 02:00:00 - 01.10.2020 02:00:00 (CEST)Schaffen, België (6465): luchtdruk: 25.09.2020 02:00:00 - 01.10.2020 02:00:00 (CEST)Schaffen, België (6465): zicht: 25.09.2020 02:00:00 - 01.10.2020 02:00:00 (CEST)
Datum & Tijd tt [°C] td [°C] ff [km/u] ff [kn] fx [km/u] fx [kn] dd ppp [hPa] vv [km]
01.10.2020 02:00:00 15,0 13,4 11 6 - - ZZO 1006,7 20
01.10.2020 01:00:00 14,6 13,3 7 4 11 6 ZZO 1007,7 19
01.10.2020 00:00:00 14,9 13,5 7 4 11 6 ZZO 1008,5 19
30.09.2020 23:00:00 14,9 13,4 7 4 - - ZZO 1009,2 20
30.09.2020 22:00:00 15,2 13,1 4 2 11 6 N 1009,6 20
30.09.2020 21:00:00 15,8 13,3 7 4 11 6 ZZO 1009,8 20
30.09.2020 20:00:00 16,2 13,6 7 4 - - ZZO 1010,3 20
30.09.2020 19:00:00 16,7 14,1 7 4 14 8 Z 1010,7 20
30.09.2020 18:00:00 16,7 14,6 7 4 18 10 WZW 1011,2 20
30.09.2020 17:00:00 18,8 13,5 11 6 - - Z 1011,3 20
30.09.2020 16:00:00 19,5 13,5 14 8 25 14 Z 1011,7 20
30.09.2020 15:00:00 19,7 13,3 14 8 29 16 Z 1012,2 19
30.09.2020 14:00:00 18,9 14,4 11 6 - - ZZW 1012,7 20
30.09.2020 13:00:00 18,8 14,4 14 8 29 16 Z 1013,5 20
30.09.2020 12:00:00 17,5 15,6 11 6 18 10 Z 1014,0 12
30.09.2020 11:00:00 15,4 15,0 11 6 - - ZZO 1014,5 8
30.09.2020 10:00:00 14,3 14,2 4 2 11 6 N 1014,7 4,0
30.09.2020 09:00:00 13,7 13,7 4 2 7 4 N 1015,1 1,4
30.09.2020 08:00:00 12,8 12,8 7 4 - - Z 1015,0 1,2
30.09.2020 07:00:00 13,1 12,7 4 2 11 6 N 1015,1 5
30.09.2020 06:00:00 13,6 13,4 5 3 11 6 Z 1015,3 4,2
30.09.2020 05:00:00 13,8 13,6 5 3 - - ZZW 1015,8 3,4
30.09.2020 04:00:00 13,6 13,5 5 3 11 6 Z 1016,1 4,4
30.09.2020 03:00:00 14,1 13,7 4 2 7 4 - 1016,3 6
30.09.2020 02:00:00 14,3 14,0 11 6 - - ZZO 1016,7 10
30.09.2020 01:00:00 14,3 14,1 5 3 7 4 ZZW 1016,8 5
30.09.2020 00:00:00 15,0 14,6 4 2 7 4 N 1016,7 17
29.09.2020 23:00:00 15,6 15,0 7 4 - - Z 1017,0 17
29.09.2020 22:00:00 15,8 15,0 7 4 11 6 N 1017,0 17
29.09.2020 21:00:00 16,1 15,1 7 4 14 8 ZZW 1016,7 6
29.09.2020 20:00:00 16,7 14,6 7 4 - - Z 1016,6 20
29.09.2020 19:00:00 17,3 13,8 7 4 14 8 ZZW 1016,5 20
29.09.2020 18:00:00 17,5 13,0 7 4 18 10 ZW 1016,3 16
29.09.2020 17:00:00 18,0 12,1 11 6 - - WZW 1016,2 20
29.09.2020 16:00:00 18,3 12,4 11 6 22 12 ZW 1016,2 20
29.09.2020 15:00:00 18,6 11,2 11 6 22 12 WZW 1016,2 20
29.09.2020 14:00:00 17,3 8,5 11 6 - - WZW 1016,6 20
29.09.2020 13:00:00 17,1 8,4 7 4 18 10 W 1016,7 20
29.09.2020 12:00:00 16,5 10,3 7 4 14 8 W 1016,6 20
29.09.2020 11:00:00 13,8 10,9 7 4 - - WZW 1017,5 20
29.09.2020 10:00:00 12,9 11,3 7 4 14 8 N 1017,1 18
29.09.2020 09:00:00 12,3 11,2 7 4 11 6 N 1014,8 15
29.09.2020 08:00:00 12,4 11,7 7 4 - - WZW 1014,3 12
29.09.2020 07:00:00 12,8 12,5 7 4 18 10 W 1014,3 3,6
29.09.2020 06:00:00 13,2 12,9 7 4 18 10 W 1014,3 5
29.09.2020 05:00:00 13,1 12,8 11 6 - - W 1013,8 4,4
29.09.2020 04:00:00 13,3 13,1 11 6 22 12 W 1013,6 1,6
29.09.2020 03:00:00 13,5 13,3 11 6 22 12 WNW 1013,2 1,9
29.09.2020 02:00:00 13,8 13,6 11 6 - - WNW 1012,7 1,8
29.09.2020 01:00:00 14,0 13,8 14 8 22 12 WNW 1013,0 2,3
29.09.2020 00:00:00 12,4 12,4 4 2 7 4 N 1013,0 1,8
28.09.2020 23:00:00 11,3 11,3 4 2 - - N 1012,2 1,3
28.09.2020 22:00:00 11,2 11,2 4 2 4 2 N 1012,0 3,3
28.09.2020 21:00:00 11,1 11,0 4 2 7 4 - 1011,3 1,9
28.09.2020 20:00:00 11,0 10,9 5 3 - - ZO 1010,8 2,7
28.09.2020 19:00:00 11,1 10,9 7 4 14 8 ZZO 1010,5 2,6
28.09.2020 18:00:00 11,0 10,9 11 6 18 10 ZZO 1010,0 12
28.09.2020 17:00:00 11,1 10,9 7 4 - - Z 1009,8 5
28.09.2020 16:00:00 11,0 10,7 11 6 22 12 ZZO 1009,2 2,4
28.09.2020 15:00:00 11,1 10,6 11 6 22 12 Z 1009,1 10
28.09.2020 14:00:00 11,3 10,8 11 6 - - Z 1009,2 11
28.09.2020 13:00:00 11,3 10,9 11 6 22 12 Z 1009,2 5
28.09.2020 12:00:00 11,5 11,0 11 6 22 12 Z 1009,0 13
28.09.2020 11:00:00 11,4 10,9 11 6 - - Z 1008,7 5
28.09.2020 10:00:00 11,3 10,9 11 6 18 10 Z 1009,0 3,0
28.09.2020 09:00:00 11,3 10,8 7 4 14 8 Z 1008,7 1,9
28.09.2020 08:00:00 11,5 10,6 8 4 - - Z 1008,3 4,9
28.09.2020 07:00:00 11,3 10,5 4 2 7 4 N 1008,2 5
28.09.2020 06:00:00 11,3 10,6 4 2 7 4 - 1008,2 4,8
28.09.2020 05:00:00 11,3 10,7 4 2 - - N 1008,1 7
28.09.2020 04:00:00 11,3 10,5 4 2 7 4 N 1008,2 8
28.09.2020 03:00:00 11,2 10,0 4 2 4 2 N 1008,6 12
28.09.2020 02:00:00 11,0 9,6 4 2 - - N 1008,5 15
28.09.2020 01:00:00 11,6 9,7 4 2 0 0 N 1008,5 17
28.09.2020 00:00:00 11,5 9,8 4 2 0 0 N 1008,5 13
27.09.2020 23:00:00 12,0 9,5 4 2 - - N 1008,0 16
27.09.2020 22:00:00 11,6 9,5 4 2 4 2 N 1007,6 19
27.09.2020 21:00:00 12,2 9,1 4 2 4 2 N 1007,2 20
27.09.2020 20:00:00 12,3 9,2 4 2 - - N 1006,8 20
27.09.2020 19:00:00 12,5 9,1 7 4 11 6 N 1006,3 20
27.09.2020 18:00:00 13,1 8,9 7 4 14 8 NNO 1005,8 20
27.09.2020 17:00:00 13,2 8,5 11 6 - - NO 1005,3 20
27.09.2020 16:00:00 13,2 8,9 7 4 18 10 ONO 1004,5 20
27.09.2020 15:00:00 13,2 9,3 11 6 29 16 ONO 1004,1 20
27.09.2020 14:00:00 13,1 9,3 14 8 - - NO 1003,2 17
27.09.2020 13:00:00 12,1 9,9 18 10 32 18 NNO 1002,2 20
27.09.2020 12:00:00 12,2 10,0 18 10 29 16 NNO 1001,2 20
27.09.2020 11:00:00 12,1 10,2 14 8 - - ONO 1000,1 20
27.09.2020 10:00:00 13,7 11,4 21 11 29 16 NNO 999,1 10
27.09.2020 09:00:00 13,8 12,4 21 11 36 19 NNO 997,1 10
27.09.2020 08:00:00 15,1 13,9 25 14 - - N 996,1 16
27.09.2020 07:00:00 14,5 13,9 25 14 43 23 N 995,4 13
27.09.2020 06:00:00 14,1 13,4 32 18 50 27 NNW 994,8 20
27.09.2020 05:00:00 13,1 12,5 32 18 - - NNW 995,0 7
27.09.2020 04:00:00 12,1 11,6 29 16 50 27 NW 995,9 2,8
27.09.2020 03:00:00 11,6 11,0 22 12 36 19 WNW 997,4 6
27.09.2020 02:00:00 11,4 10,8 18 10 - - WNW 999,5 13
27.09.2020 01:00:00 11,6 11,1 14 8 25 14 WNW 1000,6 10
27.09.2020 00:00:00 11,6 11,0 18 10 29 16 NNW 1000,7 13
26.09.2020 23:00:00 11,3 10,9 14 8 - - W 1000,7 5
26.09.2020 22:00:00 11,1 9,9 14 8 18 10 W 1001,2 9
26.09.2020 21:00:00 11,3 8,8 11 6 18 10 W 1001,3 20
26.09.2020 20:00:00 11,3 8,9 11 6 - - W 1001,3 20
26.09.2020 19:00:00 12,5 9,9 14 8 22 12 W 1001,1 20
26.09.2020 18:00:00 13,5 9,9 11 6 25 14 W 1000,7 20
26.09.2020 17:00:00 14,1 10,0 14 8 - - W 1000,6 20
26.09.2020 16:00:00 14,5 9,5 11 6 29 16 WNW 1000,3 20
26.09.2020 15:00:00 14,9 8,9 18 10 32 18 W 1000,5 20
26.09.2020 14:00:00 14,4 9,7 18 10 - - W 1000,3 20
26.09.2020 13:00:00 13,5 9,5 21 11 36 19 WNW 1000,0 10
26.09.2020 12:00:00 13,6 8,3 18 10 29 16 NW 999,6 20
26.09.2020 11:00:00 12,5 8,3 18 10 - - NW 999,5 20
26.09.2020 10:00:00 11,3 8,9 14 8 25 14 NW 999,8 20
26.09.2020 09:00:00 10,5 8,9 14 8 29 16 NW 998,6 20
26.09.2020 08:00:00 10,3 9,3 18 10 - - WNW 997,5 20
26.09.2020 07:00:00 10,5 9,7 18 10 25 14 WNW 996,8 20
26.09.2020 06:00:00 10,6 9,8 18 10 25 14 WNW 996,3 20
26.09.2020 05:00:00 10,6 10,0 15 8 - - WNW 995,5 4,4
26.09.2020 04:00:00 11,0 10,3 18 10 40 21 WNW 995,4 19
26.09.2020 03:00:00 10,1 9,5 28 15 50 27 W 995,2 5
26.09.2020 02:00:00 9,6 8,8 29 16 - - WZW 995,1 9
26.09.2020 01:00:00 9,6 8,5 25 14 47 25 WZW 995,8 4,7
26.09.2020 00:00:00 10,0 8,8 25 14 47 25 WZW 996,6 7
25.09.2020 23:00:00 10,1 9,0 22 12 - - WZW 997,2 9
25.09.2020 22:00:00 9,8 8,7 28 15 47 25 WZW 997,1 3,0
25.09.2020 21:00:00 9,6 8,3 22 12 43 23 ZW 996,6 7
25.09.2020 20:00:00 9,8 8,2 18 10 - - WZW 997,2 12
25.09.2020 19:00:00 10,3 8,2 22 12 36 19 WZW 997,2 20
25.09.2020 18:00:00 11,1 8,3 22 12 43 23 WZW 997,4 20
25.09.2020 17:00:00 11,2 7,9 22 12 - - W 997,2 17
25.09.2020 16:00:00 12,3 7,9 11 6 36 19 ZW 997,0 20
25.09.2020 15:00:00 12,5 8,0 14 8 25 14 WZW 996,3 20
25.09.2020 14:00:00 12,9 8,2 14 8 - - ZZW 996,1 20
25.09.2020 13:00:00 12,3 8,0 13 7 29 16 ZZW 996,3 10
25.09.2020 12:00:00 11,5 7,9 14 8 25 14 Z 996,6 20
25.09.2020 11:00:00 10,6 8,2 11 6 - - Z 996,3 20
25.09.2020 10:00:00 10,1 6,8 14 8 22 12 Z 995,9 20
25.09.2020 09:00:00 9,5 6,5 14 8 25 14 Z 995,9 20
25.09.2020 08:00:00 9,1 6,2 18 10 - - Z 996,1 20
25.09.2020 07:00:00 8,1 6,2 14 8 22 12 Z 996,3 20
25.09.2020 06:00:00 8,5 6,1 11 6 22 12 Z 996,3 20
25.09.2020 05:00:00 8,9 6,6 11 6 - - ZZW 996,1 20
25.09.2020 04:00:00 9,5 7,0 14 8 36 19 ZW 996,7 20
25.09.2020 03:00:00 10,1 8,4 22 12 47 25 WZW 996,3 18
25.09.2020 02:00:00 11,8 8,7 11 6 - - ZZW 996,4 20

tt = temperatuur
td = dauwpunt
ff = windsnelheid
fx = windstoten
dd = windrichting
ppp = luchtdruk
vv = zicht

Weerstations in de omgeving